Location: Rotheul
(50.2849°N, 11.2349°E)
Time: 11:39:58
(UTC+02:00)

ISS - Pass Details

Date: 19 July 2018
Orbit: 402 x 408 km, 51.6° (Epoch: 21 July)

Event Time Altitude Azimuth Distance (km) Brightness Sun altitude
Rises 03:05:50 0° 283° (WNW) 2,330 -0.1 -15.2°
Reaches altitude 10° 03:07:55 10° 284° (WNW) 1,470 -1.1 -15.0°
Maximum altitude 03:11:13 83° 13° (NNE) 415 -3.8 -14.8°
Drops below altitude 10° 03:14:31 10° 102° (ESE) 1,469 -0.8 -14.6°
Sets 03:16:36 0° 103° (ESE) 2,329 0.2 -14.4°
